Weather History for Torrington, WY

Change the Weather History Date:

Tuesday, January 8, 2013

  Actual Average Record
Temperature  
Mean Temperature 41 °F 28 °F  
Max Temperature 49 °F 41 °F 64 °F (2002)
Min Temperature 32 °F 14 °F -12 °F (2010)
Degree Days  
Heating Degree Days 24 37  
Month to date heating degree days 305 300  
Since 1 July heating degree days 2787 3056  
Cooling Degree Days 0 0  
Month to date cooling degree days 0 0  
Year to date cooling degree days 0 0  
Moisture  
Dew Point 21 °F    
Average Humidity 48    
Maximum Humidity 61    
Minimum Humidity 34    
Precipitation  
Precipitation 0.00 in 0.01 in 0.08 in (2006)
Month to date precipitation T 0.07  
Year to date precipitation T 0.07  
Sea Level Pressure  
Sea Level Pressure 29.94 in    
Wind  
Wind Speed 17 mph (West)    
Max Wind Speed 33 mph    
Max Gust Speed 41 mph    
Visibility 10 miles    
Events      
T = Trace of Precipitation, MM = Missing Value Source: NWS Daily Summary

Daily Weather History Graph

Daily Weather History Graph

Search for Another Location

Airport:

Trip Planner

Search our weather history database for the weather conditions in past years. The results will help you decide how hot, cold, wet, or windy it might be!

Date:

Astronomy

Jan. 08, 2013 Rise Set
Actual Time 7:24 AM MST 4:42 PM MST
Civil Twilight 6:53 AM MST 5:14 PM MST
Nautical Twilight 6:18 AM MST 5:48 PM MST
Astronomical Twilight 5:44 AM MST 6:22 PM MST
Moon 3:59 AM MST (1/8) 1:47 PM MST (1/8)
Length of Visible Light 10h 20m
Length of Day
9h 18m
Waning Crescent, 13% of the Moon is Illuminated
Jan 8
Waning Crescent
Jan 11
New
Jan 18
First Quarter
Jan 26
Full
Feb 3
Last Quarter

Hourly Weather History & Observations

Time (MST) Temp. Windchill Dew Point Humidity Pressure Visibility Wind Dir Wind Speed Gust Speed Precip Events Conditions
12:53 AM 39.9 °F 30.8 °F 18.0 °F 41% 29.71 in 10.0 mi West 18.4 mph 24.2 mph N/A   Scattered Clouds
1:53 AM 39.0 °F 31.4 °F 18.0 °F 43% 29.73 in 10.0 mi West 12.7 mph 25.3 mph N/A   Partly Cloudy
2:53 AM 37.0 °F 27.4 °F 18.0 °F 46% 29.75 in 10.0 mi West 17.3 mph 23.0 mph N/A   Clear
3:53 AM 37.0 °F 28.1 °F 19.0 °F 48% 29.75 in 10.0 mi West 15.0 mph 24.2 mph N/A   Clear
4:53 AM 37.0 °F 29.8 °F 19.9 °F 50% 29.81 in 10.0 mi West 10.4 mph 18.4 mph N/A   Clear
5:53 AM 36.0 °F 28.0 °F 19.9 °F 52% 29.82 in 10.0 mi WNW 11.5 mph - N/A   Clear
7:53 AM 37.0 °F 27.7 °F 21.0 °F 52% 29.87 in 10.0 mi West 16.1 mph 24.2 mph N/A   Clear
8:53 AM 39.9 °F 30.5 °F 21.9 °F 49% 29.91 in 10.0 mi West 19.6 mph 31.1 mph N/A   Clear
9:53 AM 44.1 °F 35.7 °F 21.9 °F 42% 29.91 in 10.0 mi West 20.7 mph 34.5 mph N/A   Clear
10:53 AM 46.0 °F 37.2 °F 21.9 °F 39% 29.93 in 10.0 mi West 26.5 mph 36.8 mph N/A   Clear
11:53 AM 46.9 °F - 21.0 °F 36% 29.89 in 10.0 mi West 23.0 mph 35.7 mph N/A   Clear
12:53 PM 48.0 °F - 21.0 °F 34% 29.88 in 10.0 mi West 23.0 mph 35.7 mph N/A   Clear
1:53 PM 48.9 °F - 21.0 °F 33% 29.91 in 10.0 mi West 23.0 mph 35.7 mph N/A   Clear
2:53 PM 46.9 °F - 21.9 °F 37% 29.95 in 10.0 mi West 27.6 mph 39.1 mph N/A   Clear
3:53 PM 46.0 °F 37.8 °F 21.9 °F 39% 29.99 in 10.0 mi West 23.0 mph 29.9 mph N/A   Clear
5:53 PM 39.0 °F 32.3 °F 21.0 °F 49% 30.08 in 10.0 mi West 10.4 mph - N/A   Clear
6:53 PM 39.0 °F 31.4 °F 21.9 °F 50% 30.11 in 10.0 mi West 12.7 mph - N/A   Clear
7:53 PM 39.0 °F 31.8 °F 21.9 °F 50% 30.13 in 10.0 mi West 11.5 mph 21.9 mph N/A   Clear
9:53 PM 37.9 °F 29.6 °F 21.9 °F 53% 30.16 in 10.0 mi West 13.8 mph 26.5 mph N/A   Clear
10:53 PM 35.1 °F 26.9 °F 21.9 °F 59% 30.19 in 10.0 mi WSW 11.5 mph - N/A   Clear
11:53 PM 37.0 °F 28.5 °F 23.0 °F 57% 30.19 in 10.0 mi West 13.8 mph - N/A   Clear